User: anonymous   Login
Location: ??????
(42.0089°N, 44.3281°E)
Time: 18:11:44
(UTC+00:00)
Language:

Okean-O - Orbit

View from above orbital plane
View from above orbital plane
View from above satellite
View from above satellite

Ground track
Ground track

The orbit data is extracted from the following two-line orbital elements,

1 25860U 99039A   22025.02598969  .00000139  00000-0  27394-4 0  9992
2 25860  98.1594  63.5098 0001659 108.1258 252.0132 14.76815486212174
Epoch (UTC): 25 January 2022 00:37:25
Eccentricity: 0.0001659
inclination: 98.1594°
perigee height: 638 km
apogee height: 640 km
right ascension of ascending node: 63.5098°
argument of perigee: 108.1258°
revolutions per day: 14.76815486
mean anomaly at epoch: 252.0132°
orbit number at epoch: 21217

The dashed part of the orbit path shows where the satellite is in the earth's shadow,  

DLR